Weather History for KMIE - November, 2011

Change the Weather History Date:

Wednesday, November 2, 2011

  Actual Average Record
Temperature  
Mean Temperature 57 °F 48 °F  
Max Temperature 66 °F 58 °F 75 °F (2003)
Min Temperature 47 °F 39 °F 22 °F (2014)
Degree Days  
Heating Degree Days 8 17  
Month to date heating degree days 25 33  
Since 1 July heating degree days 537 497  
Cooling Degree Days 0 0  
Month to date cooling degree days 0 0  
Year to date cooling degree days 1068 955  
Growing Degree Days 5 (Base 50)    
Moisture  
Dew Point 34 °F    
Average Humidity 45    
Maximum Humidity 56    
Minimum Humidity 34    
Precipitation  
Precipitation 0.00 in 0.10 in 2.11 in (1972)
Month to date precipitation 0.00 0.21  
Year to date precipitation 37.60 34.00  
Sea Level Pressure  
Sea Level Pressure 30.15 in    
Wind  
Wind Speed 9 mph (SSW)    
Max Wind Speed 18 mph    
Max Gust Speed 24 mph    
Visibility 10 miles    
Events      
T = Trace of Precipitation, MM = Missing Value Source: NWS Daily Summary

Daily Weather History Graph

Daily Weather History Graph

Search for Another Location

Airport or City:

Trip Planner

Search our weather history database for the weather conditions in past years. The results will help you decide how hot, cold, wet, or windy it might be!

Date:

Astronomy

Nov. 02, 2011 Rise Set
Actual Time 8:11 AM EDT 6:37 PM EDT
Civil Twilight 7:43 AM EDT 7:06 PM EDT
Nautical Twilight 7:11 AM EDT 7:38 PM EDT
Astronomical Twilight 6:39 AM EDT 8:09 PM EDT
Moon 2:31 PM EDT (11/2) 12:20 AM EDT (11/2)
Length of Visible Light 11h 22m
Length of Day
10h 25m
Waxing Crescent, 50% of the Moon is Illuminated
Nov 2
Waxing Crescent
Nov 2
First Quarter
Nov 10
Full
Nov 18
Last Quarter
Nov 25
New

Hourly Weather History & Observations

Time (EDT) Temp. Dew Point Humidity Pressure Visibility Wind Dir Wind Speed Gust Speed Precip Events Conditions
12:53 AM 52.0 °F 33.1 °F 49% 30.18 in 10.0 mi South 8.1 mph - N/A   Clear
1:53 AM 50.0 °F 33.1 °F 52% 30.19 in 10.0 mi South 6.9 mph - N/A   Clear
2:53 AM 48.9 °F 33.1 °F 54% 30.19 in 10.0 mi South 6.9 mph - N/A   Clear
3:53 AM 50.0 °F 33.1 °F 52% 30.19 in 10.0 mi SSW 8.1 mph - N/A   Clear
4:53 AM 48.9 °F 32.0 °F 52% 30.20 in 10.0 mi SSW 8.1 mph - N/A   Clear
5:53 AM 48.0 °F 32.0 °F 54% 30.22 in 10.0 mi South 8.1 mph - N/A   Clear
6:53 AM 48.9 °F 30.9 °F 50% 30.22 in 10.0 mi South 8.1 mph - N/A   Clear
7:53 AM 46.9 °F 30.9 °F 54% 30.22 in 10.0 mi SSW 5.8 mph - N/A   Clear
8:53 AM 48.0 °F 30.9 °F 52% 30.22 in 10.0 mi South 6.9 mph - N/A   Clear
9:53 AM 52.0 °F 32.0 °F 47% 30.21 in 10.0 mi South 9.2 mph - N/A   Clear
10:53 AM 55.9 °F 32.0 °F 40% 30.20 in 10.0 mi SSW 11.5 mph 17.3 mph N/A   Clear
11:53 AM 60.1 °F 34.0 °F 38% 30.20 in 10.0 mi SSW 10.4 mph - N/A   Clear
1:53 PM 63.0 °F 36.0 °F 37% 30.14 in 10.0 mi SSW 12.7 mph - N/A   Clear
2:53 PM 64.9 °F 37.0 °F 36% 30.11 in 10.0 mi SW 10.4 mph 23.0 mph N/A   Clear
3:53 PM 64.9 °F 36.0 °F 34% 30.09 in 10.0 mi SSW 13.8 mph 21.9 mph N/A   Clear
4:53 PM 64.9 °F 36.0 °F 34% 30.07 in 10.0 mi South 13.8 mph 20.7 mph N/A   Clear
6:53 PM 61.0 °F 37.0 °F 41% 30.08 in 10.0 mi South 8.1 mph - N/A   Clear
7:53 PM 59.0 °F 37.0 °F 44% 30.06 in 10.0 mi South 8.1 mph - N/A   Clear
8:53 PM 57.9 °F 37.9 °F 47% 30.06 in 10.0 mi South 9.2 mph - N/A   Clear
9:53 PM 57.0 °F 37.9 °F 49% 30.07 in 10.0 mi SSW 6.9 mph - N/A   Clear
10:53 PM 57.0 °F 37.0 °F 47% 30.04 in 10.0 mi South 9.2 mph - N/A   Clear
11:53 PM 55.9 °F 37.0 °F 49% 30.04 in 10.0 mi SSW 8.1 mph - N/A   Clear